Location: ??????
(30.0081°N, 31.2109°E)
Time: 08:29:25
(UTC+00:00)

Cosmos 2237 - Pass Details

Date: 03 March 2021
Orbit: 845 x 857 km, 70.8° (Epoch: 15 April)

Event Time Altitude Azimuth Distance (km) Brightness Sun altitude
Rises 16:19:34 0° 194° (SSW) 3,400 7.6 -6.0°
Reaches altitude 10° 16:22:00 10° 193° (SSW) 2,469 6.9 -6.5°
Maximum altitude 16:27:39 76° 108° (ESE) 879 4.2 -7.7°
Drops below altitude 10° 16:33:22 10° 23° (NNE) 2,488 6.4 -9.0°
Sets 16:35:50 0° 22° (NNE) 3,428 7.1 -9.5°
